This demonstration page uses our WeatherBlox Daily Observations layout. Learn more.

Left ArrowRight Arrow

39.51506, -84.39828

Hourly Observations for November 24, 2020

Temp ( °F °C ) Dew Point ( °F °C ) Humidity (%) Winds ( mph kmh ) Pressure ( in mb ) Visibility ( mi km ) Precip ( " mm )
12:15 am 00:15 Clear with Mist and Fog 34 1 32 0 93 93 Calm 30.38 1029 5 8.0467 0 0
12:35 am 00:35 Hazy 34 1 N/A N/A Calm 30.37 1029 7 11.26538 0 0
12:55 am 00:55 Clear 32 0 N/A N/A Calm 30.37 1028 7 11.26538 0 0
1:15 am 01:15 Clear 32 0 32 0 100 100 Calm 30.37 1028 7 11.26538 0 0
1:35 am 01:35 Partly Cloudy with Mist and Fog 32 0 32 0 100 100 Calm 30.36 1028 7 11.26538 0 0
1:55 am 01:55 Cloudy with Mist and Fog 32 0 32 0 100 100 Calm 30.37 1028 5 8.0467 0 0
2:15 am 02:15 Cloudy with Haze 34 1 N/A N/A Calm 30.36 1028 7 11.26538 0 0
2:35 am 02:35 Cloudy with Mist and Fog 34 0.9 34 0.9 100 100 Calm 30.36 1028 7 11.26538 0 0
2:55 am 02:55 Cloudy with Mist and Fog 35 1.4 34 1.3 99 99 Calm 30.37 1029 7 11.26538 0 0
3:15 am 03:15 Cloudy 35 1.8 35 1.7 99 99 Calm 30.36 1028 7 11.26538 0 0
3:35 am 03:35 Cloudy with Mist and Fog 36 2.2 36 2.1 99 99 Calm 30.36 1028 7 11.26538 0 0
3:55 am 03:55 Cloudy 36 2.2 35 1.8 97 97 Calm 30.37 1028 7 11.26538 0 0
4:15 am 04:15 Cloudy 37 2.5 36 2 97 97 Calm 30.36 1028 7 11.26538 0 0
4:35 am 04:35 Cloudy 37 2.6 35 1.9 95 95 Calm 30.37 1028 10 16.0934 0 0
4:55 am 04:55 Cloudy 37 2.9 36 2.3 96 96 Calm 30.36 1028 7 11.26538 0 0
5:15 am 05:15 Cloudy 37 2.7 36 2.1 96 96 Calm 30.37 1028 7 11.26538 0 0
5:35 am 05:35 Cloudy 37 2.8 36 2.2 96 96 Calm 30.37 1028 7 11.26538 0 0
5:55 am 05:55 Cloudy 38 3.1 36 2.3 95 95 Calm 30.36 1028 10 16.0934 0 0
6:15 am 06:15 Cloudy 37 3 36 2.1 94 94 Calm 30.36 1028 10 16.0934 0 0
6:35 am 06:35 Cloudy 38 3.1 36 2 93 93 ENE 5 7 30.36 1028 10 16.0934 0 0
6:55 am 06:55 Cloudy 38 3.3 35 1.9 91 91 Calm 30.36 1028 10 16.0934 0 0
7:15 am 07:15 Cloudy 38 3.4 35 1.8 89 89 Calm 30.36 1028 10 16.0934 0 0
7:35 am 07:35 Partly Cloudy 38 3.1 35 1.7 91 91 Calm 30.36 1028 10 16.0934 0 0
7:55 am 07:55 Cloudy 39 3.8 35 1.7 86 86 Calm 30.36 1028 10 16.0934 0 0
8:15 am 08:15 Cloudy 39 4.1 35 1.4 83 83 Calm 30.34 1028 10 16.0934 0 0
8:35 am 08:35 Cloudy 40 4.6 34 0.9 77 77 S 3 6 30.35 1028 10 16.0934 0 0
8:55 am 08:55 Cloudy 41 5 33 0.6 73 73 Calm 30.35 1028 10 16.0934 0 0
9:15 am 09:15 Cloudy 41 5 33 0.8 75 75 Calm 30.35 1028 10 16.0934 0 0
9:35 am 09:35 Cloudy 42 5.3 33 0.6 72 72 Calm 30.35 1028 10 16.0934 0 0
9:55 am 09:55 Cloudy 42 5.6 34 1 73 73 SSE 3 6 30.35 1028 10 16.0934 0 0
10:15 am 10:15 Cloudy 42 5.8 33 0.6 70 70 Calm 30.35 1028 10 16.0934 0 0
10:35 am 10:35 Cloudy with Light Rain 43 6 34 1.1 71 71 S 6 9 30.34 1027 10 16.0934 0 0
10:55 am 10:55 Cloudy 43 6.2 34 1.2 71 71 S 8 13 30.33 1027 10 16.0934 0 0
11:15 am 11:15 Cloudy 44 6.5 35 1.4 70 70 S 7 11 30.32 1027 10 16.0934 0 0
11:35 am 11:35 Cloudy with Light Rain 44 6.4 35 1.8 73 73 S 5 7 30.31 1026 10 16.0934 0 0
11:55 am 11:55 Cloudy 44 6.6 36 2.4 75 75 Calm 30.31 1026 10 16.0934 0 0
12:10 pm 12:10 Cloudy 44 6.7 36 2.2 73 73 S 8 13 30.29 1026 10 16.0934 0 0
12:35 pm 12:35 Mostly Cloudy 45 7.1 36 2.1 71 71 SSE 8 13 30.27 1025 10 16.0934 0 0
12:55 pm 12:55 Mostly Cloudy 45 7.4 36 2.1 69 69 SSE 8 13 30.25 1024 10 16.0934 0 0
1:15 pm 13:15 Partly Cloudy 46 7.8 36 2 67 67 S 9 15 30.24 1024 10 16.0934 0 0
1:35 pm 13:35 Cloudy 47 8.2 35 1.7 64 64 SSE 10 17 30.23 1024 10 16.0934 0 0
1:55 pm 13:55 Cloudy 47 8.3 35 1.7 63 63 SSE 9 15 30.21 1023 10 16.0934 0 0
2:15 pm 14:15 Cloudy 47 8.4 34 1.2 61 61 SSE 10 17 30.2 1023 10 16.0934 0 0
2:35 pm 14:35 Sunny 47 8.3 34 1.3 62 62 SSE 9 15 30.19 1022 10 16.0934 0 0
2:55 pm 14:55 Sunny 47 8.4 33 0.8 59 59 SSE 13 20 30.18 1022 10 16.0934 0 0
3:15 pm 15:15 Sunny 47 8.3 34 1.1 61 61 ENE 9 15 30.18 1022 10 16.0934 0 0
3:35 pm 15:35 Sunny 47 8.2 35 1.4 63 63 ESE 7 11 30.18 1022 10 16.0934 0 0
3:55 pm 15:55 Sunny 47 8.2 35 1.4 63 63 NE 8 13 30.17 1022 10 16.0934 0 0
4:15 pm 16:15 Sunny 47 8.1 34 1.2 62 62 S 12 19 30.16 1021 10 16.0934 0 0
4:35 pm 16:35 Sunny 46 7.9 34 1.3 63 63 S 7 11 30.16 1021 10 16.0934 0 0
4:55 pm 16:55 Sunny 46 7.9 35 1.4 64 64 S 5 7 30.16 1021 10 16.0934 0 0
5:15 pm 17:15 Sunny 46 7.6 35 1.5 66 66 SSE 3 6 30.17 1022 10 16.0934 0 0
5:35 pm 17:35 Clear 45 7.2 35 1.5 67 67 Calm 30.17 1022 10 16.0934 0 0
5:55 pm 17:55 Clear 44 6.9 35 1.5 69 69 Calm 30.17 1022 10 16.0934 0 0
6:15 pm 18:15 Clear 43 6.3 35 1.8 73 73 Calm 30.17 1022 10 16.0934 0 0
6:35 pm 18:35 Clear 42 5.7 35 1.8 76 76 Calm 30.17 1022 10 16.0934 0 0
6:55 pm 18:55 Clear 42 5.3 35 1.9 79 79 Calm 30.15 1021 10 16.0934 0 0
7:15 pm 19:15 Clear 43 6.1 35 1.9 75 75 Calm 30.15 1021 10 16.0934 0 0
7:35 pm 19:35 Clear 42 5.6 36 2 78 78 Calm 30.15 1021 10 16.0934 0 0
7:55 pm 19:55 Clear 42 5.5 36 2 78 78 SSE 3 6 30.15 1021 10 16.0934 0 0
8:15 pm 20:15 Clear 43 6 35 1.9 75 75 Calm 30.15 1021 10 16.0934 0 0
8:35 pm 20:35 Clear 42 5.4 36 2 79 79 Calm 30.14 1021 10 16.0934 0 0
8:55 pm 20:55 Clear 43 6.2 35 1.9 74 74 Calm 30.13 1020 10 16.0934 0 0
9:15 pm 21:15 Clear 42 5.6 36 2.1 78 78 Calm 30.12 1020 10 16.0934 0 0
9:35 pm 21:35 Clear 43 6.2 35 1.8 74 74 Calm 30.12 1020 10 16.0934 0 0
9:55 pm 21:55 Clear 43 6.2 35 1.9 74 74 Calm 30.1 1019 10 16.0934 0 0
10:15 pm 22:15 Clear 43 6.2 35 1.8 74 74 S 5 7 30.09 1019 10 16.0934 0 0
10:35 pm 22:35 Clear 43 5.9 35 1.9 76 76 SSW 7 11 30.08 1019 10 16.0934 0 0
10:55 pm 22:55 Clear 43 5.9 35 1.9 76 76 SSW 3 6 30.07 1018 10 16.0934 0 0
11:15 pm 23:15 Clear 43 6 35 1.9 75 75 S 3 6 30.06 1018 10 16.0934 0 0
11:35 pm 23:35 Clear 43 6.1 35 1.9 75 75 Calm 30.06 1018 10 16.0934 0 0
11:55 pm 23:55 Clear 40 4.7 35 1.7 81 81 Calm 30.06 1018 10 16.0934 0 0

Powered by AerisWeather